This demonstration page uses our WeatherBlox Daily Observations layout. Learn more.

Left ArrowRight Arrow

Hourly Observations for April 26, 2017

Temp ( °F °C ) Dew Point ( °F °C ) Humidity (%) Winds ( mph kmh ) Pressure ( in mb ) Visibility ( mi km ) Precip ( " mm )
12:15 am 00:15 Cloudy 57 14 57 14 100 100 NNE 8 13 29.77 1008 7 11 N/A
12:35 am 00:35 Cloudy 57 14 57 14 100 100 NNE 7 11 29.77 1008 7 11 N/A
12:55 am 00:55 Cloudy with Mist and Fog 57 14 57 14 100 100 NNE 7 11 29.77 1008 4 6 N/A
1:15 am 01:15 Cloudy with Mist and Fog 57 14 57 14 100 100 N 7 11 29.74 1007 5 8 N/A
1:35 am 01:35 Cloudy with Mist and Fog 57 14 57 14 100 100 NNE 8 13 29.77 1008 5 8 N/A
1:55 am 01:55 Cloudy with Light Rain 57 14 57 14 100 100 NNE 9 15 29.74 1007 5 8 N/A
2:15 am 02:15 Cloudy with Drizzle 57 14 57 14 100 100 N 6 9 29.74 1007 5 8 N/A
2:35 am 02:35 Cloudy 57 14 57 14 100 100 N 7 11 29.74 1007 7 11 N/A
2:55 am 02:55 Cloudy 57 14 57 14 100 100 N 7 11 29.74 1007 7 11 N/A
3:15 am 03:15 Cloudy with Mist and Fog 57 14 57 14 100 100 N 6 9 29.74 1007 5 8 N/A
3:35 am 03:35 Cloudy with Mist and Fog 57 14 57 14 100 100 N 6 9 29.74 1007 5 8 N/A
3:55 am 03:55 Cloudy with Mist and Fog 57 14 57 14 100 100 N 6 9 29.74 1007 5 8 N/A
4:15 am 04:15 Cloudy with Mist and Fog 57 14 57 14 100 100 N 5 7 29.74 1007 3 5 N/A
4:35 am 04:35 Cloudy with Mist and Fog 57 14 57 14 100 100 NNE 5 7 29.74 1007 3 5 N/A
4:55 am 04:55 Cloudy with Mist and Fog 57 14 57 14 100 100 N 6 9 29.74 1007 3 4 N/A
5:15 am 05:15 Cloudy with Mist and Fog 55 13 55 13 100 100 N 5 7 29.74 1007 2 3 N/A
5:35 am 05:35 Cloudy with Mist and Fog 57 14 57 14 100 100 NNW 5 7 29.74 1007 3 4 N/A
5:55 am 05:55 Cloudy with Mist and Fog 55 13 55 13 100 100 NNW 7 11 29.74 1007 3 5 N/A
6:15 am 06:15 Cloudy with Mist and Fog 55 13 55 13 100 100 N 5 7 29.74 1007 4 6 N/A
6:35 am 06:35 Cloudy with Mist and Fog 55 13 55 13 100 100 NNW 6 9 29.74 1007 4 6 N/A
6:55 am 06:55 Cloudy with Mist and Fog 55 13 55 13 100 100 N 5 7 29.77 1008 3 5 N/A
7:15 am 07:15 Cloudy with Mist and Fog 55 13 55 13 100 100 NNW 6 9 29.77 1008 1 2 N/A
7:35 am 07:35 Cloudy with Mist and Fog 55 13 55 13 100 100 NNW 6 9 29.77 1008 2 3 N/A
7:55 am 07:55 Cloudy with Mist and Fog 57 14 57 14 100 100 NNW 6 9 29.77 1008 3 5 N/A
8:15 am 08:15 Cloudy with Mist and Fog 57 14 57 14 100 100 NNW 7 11 29.77 1008 5 8 N/A
8:35 am 08:35 Cloudy with Mist and Fog 59 15 59 15 100 100 NNW 6 9 29.80 1009 5 8 N/A
8:55 am 08:55 Cloudy 59 15 59 15 100 100 N 7 11 29.80 1009 10 16 N/A
9:15 am 09:15 Cloudy 61 16 59 15 94 94 NNW 8 13 29.80 1009 10 16 N/A
9:35 am 09:35 Cloudy 61 16 61 16 100 100 NNW 8 13 29.80 1009 10 16 N/A
9:55 am 09:55 Cloudy 61 16 59 15 94 94 N 7 11 29.80 1009 10 16 N/A
10:15 am 10:15 Cloudy 61 16 59 15 94 94 NNW 8 13 29.80 1009 10 16 N/A
10:35 am 10:35 Cloudy 61 16 59 15 94 94 N 5 7 29.80 1009 10 16 N/A
10:55 am 10:55 Cloudy 61 16 61 16 100 100 N 8 13 29.80 1009 10 16 N/A
11:15 am 11:15 Cloudy 63 17 61 16 94 94 N 9 15 29.80 1009 10 16 N/A
11:35 am 11:35 Cloudy 63 17 61 16 94 94 NNW 7 11 29.80 1009 10 16 N/A
11:55 am 11:55 Cloudy 63 17 61 16 94 94 NNE 7 11 29.80 1009 10 16 N/A
12:15 pm 12:15 Cloudy 64 18 61 16 88 88 N N/A 29.80 1009 10 16 N/A
12:35 pm 12:35 Cloudy 64 18 61 16 88 88 N N/A 29.80 1009 10 16 N/A
12:55 pm 12:55 Cloudy 68 20 61 16 78 78 NNE 7 11 29.80 1009 10 16 N/A
1:15 pm 13:15 Cloudy 68 20 61 16 78 78 NNE 5 7 29.80 1009 10 16 N/A
1:35 pm 13:35 Cloudy 68 20 61 16 78 78 NNW 6 9 29.80 1009 10 16 N/A
1:55 pm 13:55 Cloudy 68 20 61 16 78 78 N 5 7 29.80 1009 10 16 N/A
2:15 pm 14:15 Cloudy 68 20 63 17 83 83 N 6 9 29.80 1009 10 16 N/A
2:35 pm 14:35 Cloudy 68 20 61 16 78 78 N 5 7 29.80 1009 10 16 N/A
2:55 pm 14:55 Cloudy 70 21 61 16 73 73 N 5 7 29.80 1009 10 16 N/A
3:15 pm 15:15 Cloudy 70 21 61 16 73 73 NNW 3 6 29.80 1009 10 16 N/A
3:35 pm 15:35 Cloudy 70 21 61 16 73 73 NW 3 6 29.80 1009 10 16 N/A
3:55 pm 15:55 Mostly Cloudy 72 22 63 17 73 73 NW 7 11 29.77 1008 10 16 N/A
4:15 pm 16:15 Partly Cloudy 72 22 63 17 73 73 WNW 6 9 29.77 1008 10 16 N/A
4:35 pm 16:35 Mostly Cloudy 72 22 61 16 69 69 ENE 3 6 29.77 1008 10 16 N/A
4:55 pm 16:55 Cloudy 73 23 61 16 65 65 E 6 9 29.77 1008 10 16 N/A
5:15 pm 17:15 Partly Cloudy 72 22 61 16 69 69 SE 5 7 29.77 1008 10 16 N/A
5:35 pm 17:35 Sunny 72 22 61 16 69 69 ESE 3 6 29.77 1008 10 16 N/A
5:55 pm 17:55 Sunny 72 22 61 16 69 69 ENE 3 6 29.77 1008 10 16 N/A
6:15 pm 18:15 Sunny 72 22 61 16 69 69 E 6 9 29.77 1008 10 16 N/A
6:35 pm 18:35 Sunny 72 22 61 16 69 69 E 5 7 29.80 1009 10 16 N/A
6:55 pm 18:55 Sunny 72 22 61 16 69 69 E 5 7 29.80 1009 10 16 N/A
7:15 pm 19:15 Sunny 72 22 61 16 69 69 E 6 9 29.80 1009 10 16 N/A
7:35 pm 19:35 Sunny 70 21 61 16 73 73 E 6 9 29.80 1009 10 16 N/A
7:55 pm 19:55 Sunny 68 20 61 16 78 78 ESE 6 9 29.80 1009 10 16 N/A
8:15 pm 20:15 Clear 68 20 61 16 78 78 E 5 7 29.80 1009 10 16 N/A
8:35 pm 20:35 Clear 66 19 61 16 83 83 E 6 9 29.80 1009 10 16 N/A
8:55 pm 20:55 Clear 66 19 61 16 83 83 ESE 6 9 29.83 1010 10 16 N/A
9:15 pm 21:15 Clear 64 18 61 16 88 88 ESE 5 7 29.83 1010 10 16 N/A
9:35 pm 21:35 Clear 64 18 61 16 88 88 ESE 5 7 29.83 1010 10 16 N/A
9:55 pm 21:55 Clear 64 18 61 16 88 88 ESE 5 7 29.83 1010 10 16 N/A
10:15 pm 22:15 Clear 64 18 61 16 88 88 ESE 5 7 29.83 1010 10 16 N/A
10:35 pm 22:35 Clear 63 17 61 16 94 94 ESE 5 7 29.83 1010 10 16 N/A
10:55 pm 22:55 Clear 63 17 61 16 94 94 ESE 5 7 29.83 1010 10 16 N/A
11:15 pm 23:15 Clear 63 17 61 16 94 94 N N/A 29.85 1011 10 16 N/A
11:35 pm 23:35 Clear 61 16 61 16 100 100 N N/A 29.85 1011 10 16 N/A
11:55 pm 23:55 Clear 61 16 61 16 100 100 N N/A 29.85 1011 10 16 N/A

Powered by AerisWeather